Time,TemperatureF,DewpointF,PressureIn,WindDirection,WindDirectionDegrees,WindSpeedMPH,WindSpeedGustMPH,Humidity,HourlyPrecipIn,Conditions,Clouds,dailyrainin,SoftwareType,DateUTC
2013-09-17 00:03:00,62.2,58.6,29.81,NNE,19,3.0,5.0,88,0.00,,,0.00,Wunderground v.1.15,2013-09-17 05:03:00,
2013-09-17 00:08:00,62.2,58.6,29.81,NE,48,3.0,5.0,88,0.00,,,0.00,Wunderground v.1.15,2013-09-17 05:08:00,
2013-09-17 00:13:00,62.1,58.5,29.81,ENE,75,0.0,4.0,88,0.00,,,0.00,Wunderground v.1.15,2013-09-17 05:13:00,
2013-09-17 00:18:00,62.0,58.4,29.81,North,353,2.0,4.0,88,0.00,,,0.00,Wunderground v.1.15,2013-09-17 05:18:00,
2013-09-17 00:24:00,61.9,58.3,29.81,NE,50,6.0,6.0,88,0.00,,,0.00,Wunderground v.1.15,2013-09-17 05:24:00,
2013-09-17 00:29:00,61.8,58.5,29.81,NE,56,3.0,6.0,89,0.00,,,0.00,Wunderground v.1.15,2013-09-17 05:29:00,
2013-09-17 00:35:00,61.7,58.1,29.81,NE,54,4.0,4.0,88,0.00,,,0.00,Wunderground v.1.15,2013-09-17 05:35:00,
2013-09-17 00:40:00,61.7,58.4,29.82,ENE,78,1.0,3.0,89,0.00,,,0.00,Wunderground v.1.15,2013-09-17 05:40:00,
2013-09-17 00:45:00,61.6,58.3,29.81,ENE,63,2.0,4.0,89,0.00,,,0.00,Wunderground v.1.15,2013-09-17 05:45:00,
2013-09-17 00:51:00,61.5,58.2,29.81,NE,41,0.0,4.0,89,0.00,,,0.00,Wunderground v.1.15,2013-09-17 05:51:00,
2013-09-17 00:56:00,61.4,58.1,29.82,East,82,0.0,4.0,89,0.00,,,0.00,Wunderground v.1.15,2013-09-17 05:56:00,
2013-09-17 01:01:00,61.3,58.0,29.81,ENE,62,2.0,4.0,89,0.00,,,0.00,Wunderground v.1.15,2013-09-17 06:01:00,
2013-09-17 01:07:00,61.3,58.0,29.81,NE,49,3.0,5.0,89,0.00,,,0.00,Wunderground v.1.15,2013-09-17 06:07:00,
2013-09-17 01:12:00,61.2,57.9,29.81,ENE,70,1.0,3.0,89,0.00,,,0.00,Wunderground v.1.15,2013-09-17 06:12:00,
2013-09-17 01:17:00,61.2,58.2,29.81,ENE,57,3.0,6.0,90,0.00,,,0.00,Wunderground v.1.15,2013-09-17 06:17:00,
2013-09-17 01:23:00,61.2,57.9,29.81,East,89,1.0,4.0,89,0.00,,,0.00,Wunderground v.1.15,2013-09-17 06:23:00,
2013-09-17 01:28:00,61.2,58.2,29.81,NE,46,2.0,4.0,90,0.00,,,0.00,Wunderground v.1.15,2013-09-17 06:28:00,
2013-09-17 01:33:00,61.1,57.8,29.81,ESE,108,0.0,3.0,89,0.00,,,0.00,Wunderground v.1.15,2013-09-17 06:33:00,
2013-09-17 01:38:00,61.0,58.0,29.81,NE,45,2.0,3.0,90,0.00,,,0.00,Wunderground v.1.15,2013-09-17 06:38:00,
2013-09-17 01:44:00,61.0,58.0,29.81,ENE,68,1.0,4.0,90,0.00,,,0.00,Wunderground v.1.15,2013-09-17 06:44:00,
2013-09-17 01:49:00,60.9,57.9,29.81,ENE,57,2.0,5.0,90,0.00,,,0.00,Wunderground v.1.15,2013-09-17 06:49:00,
2013-09-17 01:54:00,60.8,57.8,29.81,SE,143,1.0,3.0,90,0.00,,,0.00,Wunderground v.1.15,2013-09-17 06:54:00,
2013-09-17 02:00:00,60.8,57.8,29.81,NNW,347,1.0,2.0,90,0.00,,,0.00,Wunderground v.1.15,2013-09-17 07:00:00,
2013-09-17 02:05:00,60.8,57.5,29.81,ENE,72,1.0,6.0,89,0.00,,,0.00,Wunderground v.1.15,2013-09-17 07:05:00,
2013-09-17 02:10:00,60.8,57.8,29.81,NNE,29,3.0,3.0,90,0.00,,,0.00,Wunderground v.1.15,2013-09-17 07:10:00,
2013-09-17 02:15:00,60.9,57.9,29.81,NNE,23,4.0,5.0,90,0.00,,,0.00,Wunderground v.1.15,2013-09-17 07:15:00,
2013-09-17 02:20:00,60.9,57.6,29.81,ENE,70,2.0,3.0,89,0.00,,,0.00,Wunderground v.1.15,2013-09-17 07:20:00,
2013-09-17 02:25:00,60.9,57.6,29.81,NNW,347,0.0,5.0,89,0.00,,,0.00,Wunderground v.1.15,2013-09-17 07:25:00,
2013-09-17 02:30:00,60.8,57.5,29.81,NE,37,3.0,3.0,89,0.00,,,0.00,Wunderground v.1.15,2013-09-17 07:30:00,
2013-09-17 02:35:00,60.8,57.5,29.81,NE,46,3.0,6.0,89,0.00,,,0.00,Wunderground v.1.15,2013-09-17 07:35:00,
2013-09-17 02:40:00,60.8,57.5,29.81,NE,41,3.0,3.0,89,0.00,,,0.00,Wunderground v.1.15,2013-09-17 07:40:00,
2013-09-17 02:45:00,60.8,57.5,29.81,NE,34,2.0,5.0,89,0.00,,,0.00,Wunderground v.1.15,2013-09-17 07:45:00,
2013-09-17 02:50:00,60.8,57.5,29.81,North,6,2.0,2.0,89,0.00,,,0.00,Wunderground v.1.15,2013-09-17 07:50:00,
2013-09-17 02:55:00,60.7,57.4,29.81,East,94,1.0,6.0,89,0.00,,,0.00,Wunderground v.1.15,2013-09-17 07:55:00,
2013-09-17 03:00:00,60.6,57.3,29.81,ENE,63,3.0,3.0,89,0.00,,,0.00,Wunderground v.1.15,2013-09-17 08:00:00,
2013-09-17 03:05:00,60.6,57.3,29.81,NE,55,3.0,6.0,89,0.00,,,0.00,Wunderground v.1.15,2013-09-17 08:05:00,
2013-09-17 03:10:00,60.5,57.6,29.80,NNE,23,1.0,5.0,90,0.00,,,0.00,Wunderground v.1.15,2013-09-17 08:10:00,
2013-09-17 03:15:00,60.5,57.6,29.80,NNE,32,4.0,5.0,90,0.00,,,0.00,Wunderground v.1.15,2013-09-17 08:15:00,
2013-09-17 03:20:00,60.4,57.5,29.80,NNE,28,5.0,5.0,90,0.00,,,0.00,Wunderground v.1.15,2013-09-17 08:20:00,
2013-09-17 03:25:00,60.4,57.5,29.80,NE,50,2.0,6.0,90,0.00,,,0.00,Wunderground v.1.15,2013-09-17 08:25:00,
2013-09-17 03:31:00,60.4,57.5,29.80,ENE,74,5.0,5.0,90,0.00,,,0.00,Wunderground v.1.15,2013-09-17 08:31:00,
2013-09-17 03:36:00,60.4,57.5,29.80,NNW,345,1.0,7.0,90,0.00,,,0.00,Wunderground v.1.15,2013-09-17 08:36:00,
2013-09-17 03:41:00,60.4,57.5,29.80,NE,49,4.0,6.0,90,0.00,,,0.00,Wunderground v.1.15,2013-09-17 08:41:00,
2013-09-17 03:46:00,60.3,57.4,29.80,NNW,336,1.0,6.0,90,0.00,,,0.00,Wunderground v.1.15,2013-09-17 08:46:00,
2013-09-17 03:51:00,60.3,57.4,29.80,NE,44,3.0,5.0,90,0.00,,,0.00,Wunderground v.1.15,2013-09-17 08:51:00,
2013-09-17 03:56:00,60.3,57.4,29.80,ENE,57,2.0,6.0,90,0.00,,,0.00,Wunderground v.1.15,2013-09-17 08:56:00,
2013-09-17 04:01:00,60.3,57.4,29.79,North,9,2.0,7.0,90,0.00,,,0.00,Wunderground v.1.15,2013-09-17 09:01:00,
2013-09-17 04:06:00,60.3,57.4,29.80,ENE,64,2.0,7.0,90,0.00,,,0.00,Wunderground v.1.15,2013-09-17 09:06:00,
2013-09-17 04:11:00,60.3,57.4,29.80,NE,41,3.0,4.0,90,0.00,,,0.00,Wunderground v.1.15,2013-09-17 09:11:00,
2013-09-17 04:16:00,60.3,57.4,29.80,NNE,14,1.0,5.0,90,0.00,,,0.00,Wunderground v.1.15,2013-09-17 09:16:00,
2013-09-17 04:21:00,60.2,57.3,29.80,ENE,70,4.0,5.0,90,0.00,,,0.00,Wunderground v.1.15,2013-09-17 09:21:00,
2013-09-17 04:26:00,60.2,57.3,29.80,NE,45,3.0,8.0,90,0.00,,,0.00,Wunderground v.1.15,2013-09-17 09:26:00,
2013-09-17 04:31:00,60.2,57.3,29.80,North,351,2.0,6.0,90,0.00,,,0.00,Wunderground v.1.15,2013-09-17 09:31:00,
2013-09-17 04:36:00,60.2,57.3,29.80,NE,49,1.0,6.0,90,0.00,,,0.00,Wunderground v.1.15,2013-09-17 09:36:00,
2013-09-17 04:41:00,60.2,57.3,29.80,NE,39,2.0,3.0,90,0.00,,,0.00,Wunderground v.1.15,2013-09-17 09:41:00,
2013-09-17 04:46:00,60.2,57.3,29.80,NNE,14,4.0,9.0,90,0.00,,,0.00,Wunderground v.1.15,2013-09-17 09:46:00,
2013-09-17 04:51:00,60.1,57.2,29.80,NE,45,2.0,6.0,90,0.00,,,0.00,Wunderground v.1.15,2013-09-17 09:51:00,
2013-09-17 04:56:00,60.1,57.2,29.80,North,360,2.0,6.0,90,0.00,,,0.00,Wunderground v.1.15,2013-09-17 09:56:00,
2013-09-17 05:01:00,60.1,57.2,29.80,ENE,66,5.0,7.0,90,0.00,,,0.00,Wunderground v.1.15,2013-09-17 10:01:00,
2013-09-17 05:06:00,60.1,57.2,29.80,NE,54,5.0,7.0,90,0.00,,,0.00,Wunderground v.1.15,2013-09-17 10:06:00,
2013-09-17 05:11:00,60.1,57.2,29.80,NE,42,6.0,6.0,90,0.00,,,0.00,Wunderground v.1.15,2013-09-17 10:11:00,
2013-09-17 05:16:00,60.0,57.1,29.80,NE,36,4.0,7.0,90,0.00,,,0.00,Wunderground v.1.15,2013-09-17 10:16:00,
2013-09-17 05:21:00,59.9,57.3,29.80,NNW,329,3.0,5.0,91,0.00,,,0.00,Wunderground v.1.15,2013-09-17 10:21:00,
2013-09-17 05:26:00,59.9,57.0,29.80,NE,49,0.0,8.0,90,0.00,,,0.00,Wunderground v.1.15,2013-09-17 10:26:00,
2013-09-17 05:31:00,59.9,57.3,29.80,NNW,337,0.0,5.0,91,0.00,,,0.00,Wunderground v.1.15,2013-09-17 10:31:00,
2013-09-17 05:36:00,59.8,57.2,29.80,NE,34,3.0,6.0,91,0.00,,,0.00,Wunderground v.1.15,2013-09-17 10:36:00,
2013-09-17 05:41:00,59.7,57.1,29.80,NE,44,3.0,5.0,91,0.00,,,0.00,Wunderground v.1.15,2013-09-17 10:41:00,
2013-09-17 05:46:00,59.6,57.0,29.80,NNW,337,1.0,8.0,91,0.00,,,0.00,Wunderground v.1.15,2013-09-17 10:46:00,
2013-09-17 05:51:00,59.5,56.9,29.81,NE,40,4.0,6.0,91,0.00,,,0.00,Wunderground v.1.15,2013-09-17 10:51:00,
2013-09-17 05:56:00,59.4,56.8,29.81,East,85,1.0,6.0,91,0.00,,,0.00,Wunderground v.1.15,2013-09-17 10:56:00,
2013-09-17 06:01:00,59.4,56.8,29.81,NE,50,3.0,6.0,91,0.00,,,0.00,Wunderground v.1.15,2013-09-17 11:01:00,
2013-09-17 06:07:00,59.3,56.7,29.81,NE,46,7.0,7.0,91,0.00,,,0.00,Wunderground v.1.15,2013-09-17 11:07:00,
2013-09-17 06:12:00,59.3,56.7,29.81,ENE,65,1.0,6.0,91,0.00,,,0.00,Wunderground v.1.15,2013-09-17 11:12:00,
2013-09-17 06:17:00,59.3,56.7,29.81,East,84,1.0,6.0,91,0.00,,,0.00,Wunderground v.1.15,2013-09-17 11:17:00,
2013-09-17 06:22:00,59.3,56.7,29.80,NNW,340,1.0,5.0,91,0.00,,,0.00,Wunderground v.1.15,2013-09-17 11:22:00,
2013-09-17 06:27:00,59.2,56.6,29.80,NE,44,3.0,8.0,91,0.00,,,0.00,Wunderground v.1.15,2013-09-17 11:27:00,
2013-09-17 06:32:00,59.3,56.7,29.80,East,91,3.0,6.0,91,0.00,,,0.00,Wunderground v.1.15,2013-09-17 11:32:00,
2013-09-17 06:37:00,59.2,56.6,29.81,NNE,32,5.0,9.0,91,0.00,,,0.00,Wunderground v.1.15,2013-09-17 11:37:00,
2013-09-17 06:42:00,59.2,56.6,29.81,NE,34,5.0,8.0,91,0.00,,,0.00,Wunderground v.1.15,2013-09-17 11:42:00,
2013-09-17 06:47:00,59.2,56.6,29.81,NW,319,2.0,8.0,91,0.00,,,0.00,Wunderground v.1.15,2013-09-17 11:47:00,
2013-09-17 06:52:00,59.3,56.7,29.81,ENE,59,2.0,5.0,91,0.00,,,0.00,Wunderground v.1.15,2013-09-17 11:52:00,
2013-09-17 06:57:00,59.3,56.7,29.81,North,7,1.0,7.0,91,0.00,,,0.00,Wunderground v.1.15,2013-09-17 11:57:00,
2013-09-17 07:02:00,59.3,56.7,29.81,ENE,63,3.0,8.0,91,0.00,,,0.00,Wunderground v.1.15,2013-09-17 12:02:00,
2013-09-17 07:07:00,59.3,56.7,29.82,NE,45,4.0,8.0,91,0.00,,,0.00,Wunderground v.1.15,2013-09-17 12:07:00,
2013-09-17 07:12:00,59.3,56.7,29.82,East,90,2.0,6.0,91,0.00,,,0.00,Wunderground v.1.15,2013-09-17 12:12:00,
2013-09-17 07:17:00,59.3,56.7,29.82,SE,143,2.0,9.0,91,0.00,,,0.00,Wunderground v.1.15,2013-09-17 12:17:00,
2013-09-17 07:22:00,59.3,56.7,29.82,ENE,64,0.0,8.0,91,0.00,,,0.00,Wunderground v.1.15,2013-09-17 12:22:00,
2013-09-17 07:27:00,59.3,56.7,29.82,East,82,3.0,8.0,91,0.00,,,0.00,Wunderground v.1.15,2013-09-17 12:27:00,
2013-09-17 07:32:00,59.3,56.7,29.83,WNW,293,0.0,2.0,91,0.00,,,0.00,Wunderground v.1.15,2013-09-17 12:32:00,
2013-09-17 07:37:00,59.4,56.8,29.82,NW,317,2.0,6.0,91,0.00,,,0.00,Wunderground v.1.15,2013-09-17 12:37:00,
2013-09-17 07:42:00,59.4,56.5,29.82,ENE,75,4.0,8.0,90,0.00,,,0.00,Wunderground v.1.15,2013-09-17 12:42:00,
2013-09-17 07:47:00,59.5,56.9,29.82,NNW,340,2.0,8.0,91,0.00,,,0.00,Wunderground v.1.15,2013-09-17 12:47:00,
2013-09-17 07:52:00,59.6,57.0,29.83,NW,326,3.0,4.0,91,0.00,,,0.00,Wunderground v.1.15,2013-09-17 12:52:00,
2013-09-17 07:57:00,59.8,56.9,29.82,ENE,65,4.0,6.0,90,0.00,,,0.00,Wunderground v.1.15,2013-09-17 12:57:00,
2013-09-17 08:02:00,60.0,57.1,29.82,East,83,0.0,7.0,90,0.00,,,0.00,Wunderground v.1.15,2013-09-17 13:02:00,
2013-09-17 08:07:00,60.3,57.0,29.82,NE,35,3.0,7.0,89,0.00,,,0.00,Wunderground v.1.15,2013-09-17 13:07:00,
2013-09-17 08:12:00,60.5,57.2,29.82,NE,51,1.0,6.0,89,0.00,,,0.00,Wunderground v.1.15,2013-09-17 13:12:00,
2013-09-17 08:17:00,60.7,57.1,29.83,NNE,23,3.0,6.0,88,0.00,,,0.00,Wunderground v.1.15,2013-09-17 13:17:00,
2013-09-17 08:22:00,60.8,57.2,29.82,NNE,21,2.0,4.0,88,0.00,,,0.00,Wunderground v.1.15,2013-09-17 13:22:00,
2013-09-17 08:27:00,61.4,57.5,29.82,ESE,121,4.0,5.0,87,0.00,,,0.00,Wunderground v.1.15,2013-09-17 13:27:00,
2013-09-17 08:33:00,61.5,57.3,29.83,NNE,32,1.0,7.0,86,0.00,,,0.00,Wunderground v.1.15,2013-09-17 13:33:00,
2013-09-17 08:38:00,61.6,57.4,29.83,NNE,29,2.0,7.0,86,0.00,,,0.00,Wunderground v.1.15,2013-09-17 13:38:00,
2013-09-17 08:43:00,61.8,57.9,29.83,South,177,0.0,4.0,87,0.00,,,0.00,Wunderground v.1.15,2013-09-17 13:43:00,
2013-09-17 08:48:00,62.2,58.0,29.83,NNW,328,1.0,5.0,86,0.00,,,0.00,Wunderground v.1.15,2013-09-17 13:48:00,
2013-09-17 08:53:00,62.8,58.2,29.83,ESE,121,0.0,6.0,85,0.00,,,0.00,Wunderground v.1.15,2013-09-17 13:53:00,
2013-09-17 08:57:00,63.1,58.2,29.83,NE,46,2.0,7.0,84,0.00,,,0.00,Wunderground v.1.15,2013-09-17 13:57:00,
2013-09-17 09:03:00,63.2,58.3,29.83,North,349,2.0,5.0,84,0.00,,,0.00,Wunderground v.1.15,2013-09-17 14:03:00,
2013-09-17 09:08:00,63.4,58.1,29.83,ENE,59,5.0,6.0,83,0.00,,,0.00,Wunderground v.1.15,2013-09-17 14:08:00,
2013-09-17 09:13:00,63.0,58.1,29.83,ESE,109,2.0,5.0,84,0.00,,,0.00,Wunderground v.1.15,2013-09-17 14:13:00,
2013-09-17 09:18:00,63.3,58.0,29.83,NE,47,4.0,5.0,83,0.00,,,0.00,Wunderground v.1.15,2013-09-17 14:18:00,
2013-09-17 09:23:00,63.3,58.4,29.83,ENE,65,3.0,10.0,84,0.00,,,0.00,Wunderground v.1.15,2013-09-17 14:23:00,
2013-09-17 09:28:00,63.7,58.4,29.83,ESE,117,4.0,10.0,83,0.00,,,0.00,Wunderground v.1.15,2013-09-17 14:28:00,
2013-09-17 09:33:00,64.0,58.7,29.83,NE,36,3.0,4.0,83,0.00,,,0.00,Wunderground v.1.15,2013-09-17 14:33:00,
2013-09-17 09:38:00,64.4,58.8,29.83,ESE,115,3.0,6.0,82,0.00,,,0.00,Wunderground v.1.15,2013-09-17 14:38:00,
2013-09-17 09:43:00,65.0,59.4,29.83,WNW,302,1.0,5.0,82,0.00,,,0.00,Wunderground v.1.15,2013-09-17 14:43:00,
2013-09-17 09:48:00,65.5,59.2,29.83,SE,129,3.0,5.0,80,0.00,,,0.00,Wunderground v.1.15,2013-09-17 14:48:00,
2013-09-17 09:53:00,65.9,59.6,29.83,WSW,239,1.0,5.0,80,0.00,,,0.00,Wunderground v.1.15,2013-09-17 14:53:00,
2013-09-17 09:58:00,66.3,59.6,29.83,SE,132,1.0,6.0,79,0.00,,,0.00,Wunderground v.1.15,2013-09-17 14:58:00,
2013-09-17 10:03:00,66.4,59.7,29.83,East,82,2.0,5.0,79,0.00,,,0.00,Wunderground v.1.15,2013-09-17 15:03:00,
2013-09-17 10:08:00,66.1,59.7,29.83,ENE,77,1.0,7.0,80,0.00,,,0.00,Wunderground v.1.15,2013-09-17 15:08:00,
2013-09-17 10:13:00,66.8,60.1,29.83,SSE,160,1.0,4.0,79,0.00,,,0.00,Wunderground v.1.15,2013-09-17 15:13:00,
2013-09-17 10:18:00,67.1,60.0,29.83,East,100,3.0,6.0,78,0.00,,,0.00,Wunderground v.1.15,2013-09-17 15:18:00,
2013-09-17 10:23:00,67.2,60.5,29.83,SSE,160,1.0,3.0,79,0.00,,,0.00,Wunderground v.1.15,2013-09-17 15:23:00,
2013-09-17 10:28:00,67.8,60.3,29.82,ESE,122,1.0,4.0,77,0.00,,,0.00,Wunderground v.1.15,2013-09-17 15:28:00,
2013-09-17 10:33:00,67.9,60.4,29.83,NNW,342,0.0,6.0,77,0.00,,,0.00,Wunderground v.1.15,2013-09-17 15:33:00,
2013-09-17 10:39:00,68.6,60.4,29.83,SE,134,2.0,6.0,75,0.00,,,0.00,Wunderground v.1.15,2013-09-17 15:39:00,
2013-09-17 10:44:00,68.2,60.3,29.83,SSE,150,4.0,6.0,76,0.00,,,0.00,Wunderground v.1.15,2013-09-17 15:44:00,
2013-09-17 10:48:00,68.2,60.7,29.82,East,100,2.0,6.0,77,0.00,,,0.00,Wunderground v.1.15,2013-09-17 15:48:00,
2013-09-17 10:53:00,68.3,60.8,29.82,East,101,2.0,5.0,77,0.00,,,0.00,Wunderground v.1.15,2013-09-17 15:53:00,
2013-09-17 10:58:00,68.5,61.0,29.82,SSE,152,1.0,6.0,77,0.00,,,0.00,Wunderground v.1.15,2013-09-17 15:58:00,
2013-09-17 11:03:00,69.1,60.8,29.82,East,82,1.0,6.0,75,0.00,,,0.00,Wunderground v.1.15,2013-09-17 16:03:00,
2013-09-17 11:08:00,68.9,60.6,29.82,East,100,3.0,6.0,75,0.00,,,0.00,Wunderground v.1.15,2013-09-17 16:08:00,
2013-09-17 11:14:00,69.0,60.7,29.82,SE,134,4.0,4.0,75,0.00,,,0.00,Wunderground v.1.15,2013-09-17 16:14:00,
2013-09-17 11:19:00,69.3,61.0,29.82,ESE,106,3.0,7.0,75,0.00,,,0.00,Wunderground v.1.15,2013-09-17 16:19:00,
2013-09-17 11:24:00,69.7,61.0,29.81,East,98,4.0,5.0,74,0.00,,,0.00,Wunderground v.1.15,2013-09-17 16:24:00,
2013-09-17 11:29:00,69.9,61.2,29.81,East,92,1.0,5.0,74,0.00,,,0.00,Wunderground v.1.15,2013-09-17 16:29:00,
2013-09-17 11:34:00,70.3,61.6,29.81,ENE,60,1.0,6.0,74,0.00,,,0.00,Wunderground v.1.15,2013-09-17 16:34:00,
2013-09-17 11:39:00,70.1,61.4,29.81,SE,134,1.0,7.0,74,0.00,,,0.00,Wunderground v.1.15,2013-09-17 16:39:00,
2013-09-17 11:44:00,70.7,61.6,29.81,SSE,150,2.0,6.0,73,0.00,,,0.00,Wunderground v.1.15,2013-09-17 16:44:00,
2013-09-17 11:49:00,71.6,62.1,29.81,SSE,166,3.0,6.0,72,0.00,,,0.00,Wunderground v.1.15,2013-09-17 16:49:00,
2013-09-17 11:54:00,72.0,61.7,29.81,SSE,155,4.0,7.0,70,0.00,,,0.00,Wunderground v.1.15,2013-09-17 16:54:00,
2013-09-17 11:59:00,72.2,61.5,29.81,East,100,4.0,7.0,69,0.00,,,0.00,Wunderground v.1.15,2013-09-17 16:59:00,
2013-09-17 12:04:00,71.8,61.5,29.81,East,95,4.0,6.0,70,0.00,,,0.00,Wunderground v.1.15,2013-09-17 17:04:00,
2013-09-17 12:09:00,71.5,61.2,29.80,ESE,108,3.0,7.0,70,0.00,,,0.00,Wunderground v.1.15,2013-09-17 17:09:00,
2013-09-17 12:14:00,72.3,62.0,29.80,East,96,2.0,6.0,70,0.00,,,0.00,Wunderground v.1.15,2013-09-17 17:14:00,
2013-09-17 12:19:00,72.7,61.5,29.80,East,88,3.0,6.0,68,0.00,,,0.00,Wunderground v.1.15,2013-09-17 17:19:00,
2013-09-17 12:24:00,72.4,61.7,29.80,SSE,163,3.0,6.0,69,0.00,,,0.00,Wunderground v.1.15,2013-09-17 17:24:00,
2013-09-17 12:29:00,72.8,62.0,29.79,ESE,109,2.0,6.0,69,0.00,,,0.00,Wunderground v.1.15,2013-09-17 17:29:00,
2013-09-17 12:34:00,73.0,61.8,29.79,SSE,152,2.0,5.0,68,0.00,,,0.00,Wunderground v.1.15,2013-09-17 17:34:00,
2013-09-17 12:39:00,73.6,62.0,29.79,ESE,113,1.0,6.0,67,0.00,,,0.00,Wunderground v.1.15,2013-09-17 17:39:00,
2013-09-17 12:44:00,74.2,62.1,29.78,ENE,57,2.0,4.0,66,0.00,,,0.00,Wunderground v.1.15,2013-09-17 17:44:00,
2013-09-17 12:49:00,74.2,61.2,29.78,SE,132,5.0,6.0,64,0.00,,,0.00,Wunderground v.1.15,2013-09-17 17:49:00,
2013-09-17 12:54:00,74.5,62.0,29.78,ESE,105,3.0,7.0,65,0.00,,,0.00,Wunderground v.1.15,2013-09-17 17:54:00,
2013-09-17 12:59:00,74.6,62.5,29.78,West,280,2.0,7.0,66,0.00,,,0.00,Wunderground v.1.15,2013-09-17 17:59:00,
2013-09-17 13:04:00,75.0,62.4,29.77,East,93,3.0,6.0,65,0.00,,,0.00,Wunderground v.1.15,2013-09-17 18:04:00,
2013-09-17 13:09:00,75.2,62.2,29.77,NE,54,2.0,6.0,64,0.00,,,0.00,Wunderground v.1.15,2013-09-17 18:09:00,
2013-09-17 13:14:00,75.6,61.7,29.77,ENE,77,4.0,9.0,62,0.00,,,0.00,Wunderground v.1.15,2013-09-17 18:14:00,
2013-09-17 13:19:00,75.0,61.5,29.77,ESE,113,4.0,9.0,63,0.00,,,0.00,Wunderground v.1.15,2013-09-17 18:19:00,
2013-09-17 13:24:00,75.3,62.3,29.77,NE,47,2.0,3.0,64,0.00,,,0.00,Wunderground v.1.15,2013-09-17 18:24:00,
2013-09-17 13:29:00,75.5,62.0,29.77,North,352,2.0,5.0,63,0.00,,,0.00,Wunderground v.1.15,2013-09-17 18:29:00,
2013-09-17 13:34:00,76.4,62.4,29.77,ENE,65,0.0,5.0,62,0.00,,,0.00,Wunderground v.1.15,2013-09-17 18:34:00,
2013-09-17 13:39:00,76.8,61.9,29.76,NNE,33,5.0,5.0,60,0.00,,,0.00,Wunderground v.1.15,2013-09-17 18:39:00,
2013-09-17 13:44:00,76.4,62.0,29.76,East,84,3.0,6.0,61,0.00,,,0.00,Wunderground v.1.15,2013-09-17 18:44:00,
2013-09-17 13:49:00,76.5,62.0,29.76,East,100,3.0,6.0,61,0.00,,,0.00,Wunderground v.1.15,2013-09-17 18:49:00,
2013-09-17 13:54:00,76.3,61.9,29.76,West,259,0.0,4.0,61,0.00,,,0.00,Wunderground v.1.15,2013-09-17 18:54:00,
2013-09-17 13:59:00,76.7,61.8,29.76,North,11,2.0,4.0,60,0.00,,,0.00,Wunderground v.1.15,2013-09-17 18:59:00,
2013-09-17 14:04:00,76.7,61.8,29.75,ESE,106,3.0,6.0,60,0.00,,,0.00,Wunderground v.1.15,2013-09-17 19:04:00,
2013-09-17 14:09:00,76.3,61.4,29.75,ESE,121,5.0,8.0,60,0.00,,,0.00,Wunderground v.1.15,2013-09-17 19:09:00,
2013-09-17 14:14:00,76.3,61.9,29.75,East,85,0.0,4.0,61,0.00,,,0.00,Wunderground v.1.15,2013-09-17 19:14:00,
2013-09-17 14:19:00,76.7,61.3,29.74,ENE,57,2.0,4.0,59,0.00,,,0.00,Wunderground v.1.15,2013-09-17 19:19:00,
2013-09-17 14:24:00,76.5,61.1,29.75,NNE,25,1.0,4.0,59,0.00,,,0.00,Wunderground v.1.15,2013-09-17 19:24:00,
2013-09-17 14:29:00,76.4,60.5,29.74,NE,39,2.0,5.0,58,0.00,,,0.00,Wunderground v.1.15,2013-09-17 19:29:00,
2013-09-17 14:34:00,76.3,61.4,29.74,ESE,119,2.0,4.0,60,0.00,,,0.00,Wunderground v.1.15,2013-09-17 19:34:00,
2013-09-17 14:39:00,76.7,61.3,29.74,ENE,70,0.0,4.0,59,0.00,,,0.00,Wunderground v.1.15,2013-09-17 19:39:00,
2013-09-17 14:44:00,77.0,62.0,29.74,NNW,333,3.0,5.0,60,0.00,,,0.00,Wunderground v.1.15,2013-09-17 19:44:00,
2013-09-17 14:50:00,77.0,61.1,29.74,East,79,0.0,2.0,58,0.00,,,0.00,Wunderground v.1.15,2013-09-17 19:50:00,
2013-09-17 14:55:00,76.8,60.9,29.74,SE,143,1.0,3.0,58,0.00,,,0.00,Wunderground v.1.15,2013-09-17 19:55:00,
2013-09-17 15:00:00,77.2,61.3,29.74,ESE,104,1.0,3.0,58,0.00,,,0.00,Wunderground v.1.15,2013-09-17 20:00:00,
2013-09-17 15:05:00,77.3,61.4,29.73,NNE,12,1.0,3.0,58,0.00,,,0.00,Wunderground v.1.15,2013-09-17 20:05:00,
2013-09-17 15:10:00,77.5,61.1,29.74,ENE,75,3.0,3.0,57,0.00,,,0.00,Wunderground v.1.15,2013-09-17 20:10:00,
2013-09-17 15:15:00,76.9,60.0,29.73,NE,54,2.0,5.0,56,0.00,,,0.00,Wunderground v.1.15,2013-09-17 20:15:00,
2013-09-17 15:20:00,77.0,61.1,29.73,East,84,2.0,2.0,58,0.00,,,0.00,Wunderground v.1.15,2013-09-17 20:20:00,
2013-09-17 15:25:00,76.7,60.8,29.73,NE,38,6.0,6.0,58,0.00,,,0.00,Wunderground v.1.15,2013-09-17 20:25:00,
2013-09-17 15:30:00,76.4,61.0,29.73,NNW,327,2.0,4.0,59,0.00,,,0.00,Wunderground v.1.15,2013-09-17 20:30:00,
2013-09-17 15:35:00,76.8,61.4,29.73,East,98,3.0,5.0,59,0.00,,,0.00,Wunderground v.1.15,2013-09-17 20:35:00,
2013-09-17 15:40:00,76.6,61.2,29.72,East,94,2.0,5.0,59,0.00,,,0.00,Wunderground v.1.15,2013-09-17 20:40:00,
2013-09-17 15:45:00,76.5,61.6,29.72,ESE,105,2.0,5.0,60,0.00,,,0.00,Wunderground v.1.15,2013-09-17 20:45:00,
2013-09-17 15:50:00,76.5,61.6,29.72,ESE,110,2.0,2.0,60,0.00,,,0.00,Wunderground v.1.15,2013-09-17 20:50:00,
2013-09-17 15:55:00,76.6,61.7,29.72,NNE,25,3.0,3.0,60,0.00,,,0.00,Wunderground v.1.15,2013-09-17 20:55:00,
2013-09-17 16:00:00,76.6,61.7,29.72,East,86,1.0,2.0,60,0.00,,,0.00,Wunderground v.1.15,2013-09-17 21:00:00,
2013-09-17 16:05:00,76.8,60.9,29.72,NE,45,2.0,5.0,58,0.00,,,0.00,Wunderground v.1.15,2013-09-17 21:05:00,
2013-09-17 16:10:00,76.8,61.9,29.72,ENE,65,0.0,2.0,60,0.00,,,0.00,Wunderground v.1.15,2013-09-17 21:10:00,
2013-09-17 16:15:00,76.8,60.9,29.71,NNE,30,1.0,5.0,58,0.00,,,0.00,Wunderground v.1.15,2013-09-17 21:15:00,
2013-09-17 16:20:00,76.6,61.7,29.71,NNE,25,0.0,2.0,60,0.00,,,0.00,Wunderground v.1.15,2013-09-17 21:20:00,
2013-09-17 16:25:00,76.8,61.9,29.71,NE,46,3.0,4.0,60,0.00,,,0.00,Wunderground v.1.15,2013-09-17 21:25:00,
2013-09-17 16:30:00,76.6,62.1,29.71,NE,36,3.0,5.0,61,0.00,,,0.00,Wunderground v.1.15,2013-09-17 21:30:00,
2013-09-17 16:35:00,76.6,62.1,29.71,ESE,103,1.0,5.0,61,0.00,,,0.00,Wunderground v.1.15,2013-09-17 21:35:00,
2013-09-17 16:40:00,76.5,62.0,29.72,East,93,1.0,2.0,61,0.00,,,0.00,Wunderground v.1.15,2013-09-17 21:40:00,
2013-09-17 16:45:00,76.7,61.8,29.72,SE,131,0.0,2.0,60,0.00,,,0.00,Wunderground v.1.15,2013-09-17 21:45:00,
2013-09-17 16:50:00,77.3,62.8,29.72,SE,136,1.0,2.0,61,0.00,,,0.00,Wunderground v.1.15,2013-09-17 21:50:00,
2013-09-17 16:55:00,77.7,62.7,29.72,ESE,115,2.0,3.0,60,0.00,,,0.00,Wunderground v.1.15,2013-09-17 21:55:00,
2013-09-17 17:00:00,77.4,62.4,29.72,ESE,121,2.0,2.0,60,0.00,,,0.00,Wunderground v.1.15,2013-09-17 22:00:00,
2013-09-17 17:05:00,77.3,62.3,29.72,ENE,60,1.0,3.0,60,0.00,,,0.00,Wunderground v.1.15,2013-09-17 22:05:00,
2013-09-17 17:10:00,76.8,61.4,29.72,East,96,1.0,1.0,59,0.00,,,0.00,Wunderground v.1.15,2013-09-17 22:10:00,
2013-09-17 17:15:00,77.0,62.0,29.71,ESE,111,2.0,2.0,60,0.00,,,0.00,Wunderground v.1.15,2013-09-17 22:15:00,
2013-09-17 17:20:00,77.0,62.5,29.71,East,99,1.0,1.0,61,0.00,,,0.00,Wunderground v.1.15,2013-09-17 22:20:00,
2013-09-17 17:26:00,77.1,61.7,29.71,NE,56,4.0,4.0,59,0.00,,,0.00,Wunderground v.1.15,2013-09-17 22:26:00,
2013-09-17 17:30:00,76.9,62.0,29.71,East,80,1.0,2.0,60,0.00,,,0.00,Wunderground v.1.15,2013-09-17 22:30:00,
2013-09-17 17:36:00,76.9,61.5,29.71,East,91,0.0,2.0,59,0.00,,,0.00,Wunderground v.1.15,2013-09-17 22:36:00,
2013-09-17 17:41:00,76.9,61.5,29.71,ENE,70,1.0,2.0,59,0.00,,,0.00,Wunderground v.1.15,2013-09-17 22:41:00,
2013-09-17 17:46:00,77.0,62.0,29.71,ESE,107,0.0,2.0,60,0.00,,,0.00,Wunderground v.1.15,2013-09-17 22:46:00,
2013-09-17 17:51:00,76.7,61.8,29.71,East,101,0.0,2.0,60,0.00,,,0.00,Wunderground v.1.15,2013-09-17 22:51:00,
2013-09-17 17:56:00,76.5,61.6,29.72,East,98,0.0,2.0,60,0.00,,,0.00,Wunderground v.1.15,2013-09-17 22:56:00,
2013-09-17 18:01:00,76.3,61.9,29.71,ENE,73,0.0,0.0,61,0.00,,,0.00,Wunderground v.1.15,2013-09-17 23:01:00,
2013-09-17 18:06:00,76.3,62.3,29.71,East,91,0.0,0.0,62,0.00,,,0.00,Wunderground v.1.15,2013-09-17 23:06:00,
2013-09-17 18:11:00,75.9,61.9,29.71,NE,44,0.0,1.0,62,0.00,,,0.00,Wunderground v.1.15,2013-09-17 23:11:00,
2013-09-17 18:16:00,75.6,62.1,29.71,NE,56,0.0,2.0,63,0.00,,,0.00,Wunderground v.1.15,2013-09-17 23:16:00,
2013-09-17 18:21:00,75.5,62.0,29.71,SE,127,0.0,1.0,63,0.00,,,0.00,Wunderground v.1.15,2013-09-17 23:21:00,
2013-09-17 18:26:00,75.3,62.7,29.71,ESE,118,0.0,1.0,65,0.00,,,0.00,Wunderground v.1.15,2013-09-17 23:26:00,
2013-09-17 18:31:00,75.2,62.6,29.71,ESE,115,0.0,0.0,65,0.00,,,0.00,Wunderground v.1.15,2013-09-17 23:31:00,
2013-09-17 18:36:00,74.9,61.9,29.71,East,98,0.0,0.0,64,0.00,,,0.00,Wunderground v.1.15,2013-09-17 23:36:00,
2013-09-17 18:41:00,74.8,62.7,29.71,East,98,0.0,0.0,66,0.00,,,0.00,Wunderground v.1.15,2013-09-17 23:41:00,
2013-09-17 18:46:00,74.5,61.5,29.71,East,98,0.0,0.0,64,0.00,,,0.00,Wunderground v.1.15,2013-09-17 23:46:00,
2013-09-17 18:51:00,74.3,62.2,29.71,East,98,0.0,0.0,66,0.00,,,0.00,Wunderground v.1.15,2013-09-17 23:51:00,
2013-09-17 18:56:00,74.0,62.3,29.71,East,98,0.0,0.0,67,0.00,,,0.00,Wunderground v.1.15,2013-09-17 23:56:00,
2013-09-17 19:01:00,73.7,62.1,29.71,East,98,0.0,0.0,67,0.00,,,0.00,Wunderground v.1.15,2013-09-18 00:01:00,
2013-09-17 19:06:00,73.5,63.1,29.71,East,98,0.0,0.0,70,0.00,,,0.00,Wunderground v.1.15,2013-09-18 00:06:00,
2013-09-17 19:11:00,73.2,62.4,29.71,East,98,0.0,0.0,69,0.00,,,0.00,Wunderground v.1.15,2013-09-18 00:11:00,
2013-09-17 19:16:00,73.0,62.2,29.71,East,98,0.0,0.0,69,0.00,,,0.00,Wunderground v.1.15,2013-09-18 00:16:00,
2013-09-17 19:21:00,72.8,63.2,29.71,East,98,0.0,0.0,72,0.00,,,0.00,Wunderground v.1.15,2013-09-18 00:21:00,
2013-09-17 19:26:00,72.4,63.3,29.71,East,98,0.0,0.0,73,0.00,,,0.00,Wunderground v.1.15,2013-09-18 00:26:00,
2013-09-17 19:31:00,72.1,63.4,29.71,East,98,0.0,0.0,74,0.00,,,0.00,Wunderground v.1.15,2013-09-18 00:31:00,
2013-09-17 19:36:00,71.8,63.1,29.71,East,98,0.0,0.0,74,0.00,,,0.00,Wunderground v.1.15,2013-09-18 00:36:00,
2013-09-17 19:41:00,71.5,63.2,29.71,East,97,0.0,0.0,75,0.00,,,0.00,Wunderground v.1.15,2013-09-18 00:41:00,
2013-09-17 19:46:00,71.3,63.7,29.71,East,98,0.0,0.0,77,0.00,,,0.00,Wunderground v.1.15,2013-09-18 00:46:00,
2013-09-17 19:52:00,71.1,63.5,29.71,East,98,0.0,0.0,77,0.00,,,0.00,Wunderground v.1.15,2013-09-18 00:52:00,
2013-09-17 19:57:00,70.9,63.3,29.71,East,98,0.0,0.0,77,0.00,,,0.00,Wunderground v.1.15,2013-09-18 00:57:00,
2013-09-17 20:02:00,70.9,63.3,29.71,East,98,0.0,0.0,77,0.00,,,0.00,Wunderground v.1.15,2013-09-18 01:02:00,
2013-09-17 20:07:00,70.5,63.3,29.71,East,98,0.0,0.0,78,0.00,,,0.00,Wunderground v.1.15,2013-09-18 01:07:00,
2013-09-17 20:12:00,70.1,63.3,29.72,East,97,0.0,0.0,79,0.00,,,0.00,Wunderground v.1.15,2013-09-18 01:12:00,
2013-09-17 20:17:00,70.1,63.6,29.72,ENE,72,0.0,0.0,80,0.00,,,0.00,Wunderground v.1.15,2013-09-18 01:17:00,
2013-09-17 20:22:00,70.2,63.4,29.71,ENE,72,0.0,0.0,79,0.00,,,0.00,Wunderground v.1.15,2013-09-18 01:22:00,
2013-09-17 20:27:00,70.2,63.7,29.71,ENE,72,0.0,0.0,80,0.00,,,0.00,Wunderground v.1.15,2013-09-18 01:27:00,
2013-09-17 20:32:00,70.1,63.3,29.71,ENE,72,0.0,0.0,79,0.00,,,0.00,Wunderground v.1.15,2013-09-18 01:32:00,
2013-09-17 20:37:00,69.9,63.8,29.71,ENE,74,0.0,0.0,81,0.00,,,0.00,Wunderground v.1.15,2013-09-18 01:37:00,
2013-09-17 20:42:00,69.7,64.3,29.71,ESE,114,0.0,0.0,83,0.00,,,0.00,Wunderground v.1.15,2013-09-18 01:42:00,
2013-09-17 20:47:00,69.5,64.5,29.71,ESE,116,0.0,0.0,84,0.00,,,0.00,Wunderground v.1.15,2013-09-18 01:47:00,
2013-09-17 20:52:00,69.2,63.8,29.71,NNE,27,0.0,2.0,83,0.00,,,0.00,Wunderground v.1.15,2013-09-18 01:52:00,
2013-09-17 20:57:00,69.0,63.6,29.71,ENE,63,0.0,3.0,83,0.00,,,0.00,Wunderground v.1.15,2013-09-18 01:57:00,
2013-09-17 21:02:00,69.0,63.6,29.71,NE,49,1.0,3.0,83,0.00,,,0.00,Wunderground v.1.15,2013-09-18 02:02:00,
2013-09-17 21:07:00,69.1,63.4,29.71,ENE,63,2.0,4.0,82,0.00,,,0.00,Wunderground v.1.15,2013-09-18 02:07:00,
2013-09-17 21:12:00,69.1,63.4,29.72,ENE,75,0.0,2.0,82,0.00,,,0.00,Wunderground v.1.15,2013-09-18 02:12:00,
2013-09-17 21:17:00,69.1,63.0,29.72,SSE,158,0.0,2.0,81,0.00,,,0.00,Wunderground v.1.15,2013-09-18 02:17:00,
2013-09-17 21:22:00,69.1,63.0,29.71,ESE,115,0.0,2.0,81,0.00,,,0.00,Wunderground v.1.15,2013-09-18 02:22:00,
2013-09-17 21:27:00,69.1,63.4,29.71,NNE,32,2.0,3.0,82,0.00,,,0.00,Wunderground v.1.15,2013-09-18 02:27:00,
2013-09-17 21:32:00,69.0,63.6,29.72,NE,36,0.0,1.0,83,0.00,,,0.00,Wunderground v.1.15,2013-09-18 02:32:00,
2013-09-17 21:37:00,68.9,63.2,29.71,ESE,115,0.0,1.0,82,0.00,,,0.00,Wunderground v.1.15,2013-09-18 02:37:00,
2013-09-17 21:42:00,68.8,63.4,29.71,NE,43,2.0,2.0,83,0.00,,,0.00,Wunderground v.1.15,2013-09-18 02:42:00,
2013-09-17 21:47:00,68.7,63.3,29.71,North,359,0.0,2.0,83,0.00,,,0.00,Wunderground v.1.15,2013-09-18 02:47:00,
2013-09-17 21:52:00,68.5,62.8,29.72,North,360,0.0,0.0,82,0.00,,,0.00,Wunderground v.1.15,2013-09-18 02:52:00,
2013-09-17 21:57:00,68.4,63.0,29.71,North,353,0.0,0.0,83,0.00,,,0.00,Wunderground v.1.15,2013-09-18 02:57:00,
2013-09-17 22:02:00,68.3,62.9,29.71,SE,129,0.0,0.0,83,0.00,,,0.00,Wunderground v.1.15,2013-09-18 03:02:00,
2013-09-17 22:07:00,68.3,62.9,29.71,NNE,26,0.0,3.0,83,0.00,,,0.00,Wunderground v.1.15,2013-09-18 03:07:00,
2013-09-17 22:12:00,68.2,62.8,29.71,NNE,26,0.0,0.0,83,0.00,,,0.00,Wunderground v.1.15,2013-09-18 03:12:00,
2013-09-17 22:17:00,68.0,62.6,29.71,South,175,0.0,1.0,83,0.00,,,0.00,Wunderground v.1.15,2013-09-18 03:17:00,
2013-09-17 22:22:00,67.9,62.9,29.71,NE,34,1.0,2.0,84,0.00,,,0.00,Wunderground v.1.15,2013-09-18 03:22:00,
2013-09-17 22:27:00,67.8,62.8,29.71,East,96,0.0,2.0,84,0.00,,,0.00,Wunderground v.1.15,2013-09-18 03:27:00,
2013-09-17 22:32:00,67.7,62.7,29.71,NNE,32,0.0,0.0,84,0.00,,,0.00,Wunderground v.1.15,2013-09-18 03:32:00,
2013-09-17 22:37:00,67.6,62.6,29.71,NNE,27,0.0,0.0,84,0.00,,,0.00,Wunderground v.1.15,2013-09-18 03:37:00,
2013-09-17 22:42:00,67.6,62.6,29.71,South,170,0.0,0.0,84,0.00,,,0.00,Wunderground v.1.15,2013-09-18 03:42:00,
2013-09-17 22:47:00,67.5,62.5,29.71,South,171,0.0,0.0,84,0.00,,,0.00,Wunderground v.1.15,2013-09-18 03:47:00,
2013-09-17 22:52:00,67.4,62.4,29.71,SSE,167,0.0,0.0,84,0.00,,,0.00,Wunderground v.1.15,2013-09-18 03:52:00,
2013-09-17 22:57:00,67.4,62.4,29.71,SE,139,0.0,1.0,84,0.00,,,0.00,Wunderground v.1.15,2013-09-18 03:57:00,
2013-09-17 23:01:00,67.5,62.8,29.71,SE,124,0.0,0.0,85,0.00,,,0.00,Wunderground v.1.15,2013-09-18 04:01:00,
2013-09-17 23:06:00,67.5,62.5,29.71,ESE,112,0.0,0.0,84,0.00,,,0.00,Wunderground v.1.15,2013-09-18 04:06:00,
2013-09-17 23:11:00,67.4,62.4,29.71,North,356,0.0,0.0,84,0.00,,,0.00,Wunderground v.1.15,2013-09-18 04:11:00,
2013-09-17 23:16:00,67.3,62.3,29.71,North,360,0.0,1.0,84,0.00,,,0.00,Wunderground v.1.15,2013-09-18 04:16:00,
2013-09-17 23:22:00,67.2,62.5,29.71,North,360,0.0,0.0,85,0.00,,,0.00,Wunderground v.1.15,2013-09-18 04:22:00,
2013-09-17 23:27:00,67.0,62.3,29.71,North,360,0.0,0.0,85,0.00,,,0.00,Wunderground v.1.15,2013-09-18 04:27:00,
2013-09-17 23:32:00,66.9,62.2,29.71,North,360,0.0,0.0,85,0.00,,,0.00,Wunderground v.1.15,2013-09-18 04:32:00,
2013-09-17 23:37:00,66.8,62.5,29.71,North,358,0.0,0.0,86,0.00,,,0.00,Wunderground v.1.15,2013-09-18 04:37:00,
2013-09-17 23:42:00,66.6,62.3,29.71,North,360,0.0,0.0,86,0.00,,,0.00,Wunderground v.1.15,2013-09-18 04:42:00,
2013-09-17 23:47:00,66.5,62.2,29.71,North,5,0.0,0.0,86,0.00,,,0.00,Wunderground v.1.15,2013-09-18 04:47:00,
2013-09-17 23:52:00,66.6,62.6,29.71,NE,56,0.0,0.0,87,0.00,,,0.00,Wunderground v.1.15,2013-09-18 04:52:00,
2013-09-17 23:57:00,66.6,62.6,29.71,NE,55,0.0,0.0,87,0.00,,,0.00,Wunderground v.1.15,2013-09-18 04:57:00,